This is the latest recevied weather packets stored in our database for station/object F4FTJ-13. If no packets are shown the sender has not sent any weather packets the latest 10 day(s).
| Time | Temp. | Humidity | Pressure | Rain* | Wind** | Luminosity | Snow |
|---|---|---|---|---|---|---|---|
| 1778137238 | 11.67° C | 91% | 1015.2 hPa | 0 mm | - | - | - |
| 1778136038 | 8.89° C | 98% | 1015.1 hPa | 0 mm | - | - | - |
| 1778135437 | 9.44° C | 99% | 1015.4 hPa | 0 mm | - | - | - |
| 1778132137 | 7.78° C | 99% | 1014.9 hPa | 0 mm | - | - | - |
| 1778130337 | 3.33° C | 99% | 1014.7 hPa | 0 mm | - | - | - |
| 1778129437 | 2.78° C | 99% | 1014.6 hPa | 0 mm | - | - | - |
| 1778128837 | 2.78° C | 99% | 1014.5 hPa | 0 mm | - | - | - |
| 1778128537 | 2.78° C | 99% | 1014.5 hPa | 0 mm | - | - | - |
| 1778127338 | 3.33° C | 99% | 1014.3 hPa | 0 mm | - | - | - |
| 1778126437 | 3.89° C | 99% | 1014.5 hPa | 0 mm | - | - | - |
| 1778123437 | 4.44° C | 99% | 1014.6 hPa | 0 mm | - | - | - |
| 1778122837 | 4.44° C | 99% | 1014.5 hPa | 0 mm | - | - | - |
| 1778120437 | 5.56° C | 99% | 1014.3 hPa | 0 mm | - | - | - |
| 1778119538 | 6.11° C | 99% | 1014.2 hPa | 0 mm | - | - | - |
| 1778118037 | 6.11° C | 99% | 1014.4 hPa | 0 mm | - | - | - |
| 1778117137 | 6.67° C | 99% | 1013.9 hPa | 0 mm | - | - | - |
| 1778115638 | 7.78° C | 99% | 1014.3 hPa | 0 mm | - | - | - |
| 1778113237 | 7.78° C | 99% | 1014.2 hPa | 0 mm | - | - | - |
| 1778111438 | 7.78° C | 99% | 1014.2 hPa | 0 mm | - | - | - |
| 1778109337 | 7.78° C | 99% | 1014 hPa | 0 mm | - | - | - |
| 1778107837 | 7.78° C | 99% | 1014.1 hPa | 0 mm | - | - | - |
| 1778106938 | 7.78° C | 99% | 1013.7 hPa | 0 mm | - | - | - |
| 1778101537 | 8.89° C | 99% | 1013.5 hPa | 0 mm | - | - | - |
| 1778100337 | 8.89° C | 99% | 1013.2 hPa | 0 mm | - | - | - |
| 1778100037 | 9.44° C | 99% | 1013.1 hPa | 0 mm | - | - | - |
* Rain latest hour (hover to see other rain measurements)
** Current wind speed in m/s (hover to see current wind gust speed)